Location: Unspecified
(48.5910°N, 12.0210°E)
Time: 06:41:08
(UTC+00:00)

Daily predictions for brighter satellites

Satellite Brightness Start Highest point End
(mag) Time Altitude Azimuth Time Altitude Azimuth Time Altitude Azimuth
MOS 1 4.3 19:03:19 10° SSE 19:08:58 81° ENE 19:14:41 10° NNW
MOS 1-B Rocket 4.4 19:03:59 10° NNE 19:11:49 73° ESE 19:18:24 10° S
SJ-6B 3.7 19:16:21 10° S 19:20:07 51° W 19:24:00 10° NNW
SL-08 ROCKET BODY 4.4 19:18:38 10° N 19:24:35 89° W 19:30:27 10° S
Cosmos 1151 Rocket 4.4 19:21:44 10° SE 19:25:04 22° E 19:28:25 10° NE
Cosmos 2278 Rocket 4.0 19:25:02 10° ESE 19:26:15 11° E 19:27:30 10° E
USA 290 2.8 19:24:09 10° NNW 19:27:17 42° ENE 19:30:10 11° SE
Terra 3.8 19:24:43 10° E 19:27:21 15° ENE 19:30:00 10° NNE
USA 307 4.2 19:25:11 10° WNW 19:29:13 40° N 19:33:17 10° ENE
Ariane Rocket 3.3 19:24:46 10° S 19:29:48 72° WSW 19:34:53 10° NNW
CREW DRAGON DEMO-1 DEB 3.7 19:27:42 10° WNW 19:30:14 40° N 19:32:47 10° ENE
FALCON 9 DEB 4.5 19:30:28 10° W 19:33:03 25° SW 19:35:38 10° SSE
Cosmos 2263 Rocket 4.1 19:28:06 10° WSW 19:33:11 35° NW 19:38:19 10° NNE
CZ-2C R/B 4.4 19:30:17 10° NNE 19:34:22 34° E 19:38:29 10° SSE
Cosmos 1606 2.9 19:31:52 10° SSW 19:35:37 75° W 19:39:25 10° N
Cosmos 1844 Rocket 2.6 19:32:15 10° SSW 19:37:46 70° ESE 19:43:20 10° NNE
SPOT 1/Viking Rocket 3.9 19:36:09 11° SE 19:41:04 50° ENE 19:46:05 10° N
SL-4 R/B 3.2 19:37:40 10° WNW 19:41:42 36° SW 19:45:35 12° SSE
MetOp-B 4.3 19:37:03 10° SSE 19:42:19 64° ENE 19:47:38 10° N
Cosmos 1805 Rocket 3.6 19:38:03 10° N 19:42:25 83° W 19:46:46 10° S
USA 308 4.1 19:38:43 10° WNW 19:42:48 41° N 19:46:53 10° ENE
Cosmos 1386 Rocket 4.4 19:38:06 10° N 19:44:09 86° E 19:50:14 10° S
X-37B 1.1 19:42:35 10° WSW 19:45:37 43° S 19:47:53 16° ESE
Cosmos 1354 Rocket 4.4 19:41:34 10° S 19:46:27 41° ESE 19:51:21 10° NE
ARIANE 5 R/B 3.4 19:43:07 13° SE 19:46:28 35° ENE 19:50:25 10° N
Cosmos 1633 Rocket 3.5 19:46:38 10° N 19:50:53 47° ENE 19:54:17 15° SSE
Cosmos 1745 Rocket 4.1 19:45:08 10° N 19:51:22 83° W 19:57:31 10° S
Cosmos 1709 Rocket 4.0 19:48:08 10° N 19:54:14 64° ENE 19:59:47 12° SSE
SPOT 3 Rocket 3.6 19:49:24 10° SSE 19:54:34 83° WSW 19:59:46 10° NNW
Cosmos 1437 4.0 19:54:17 18° ESE 19:54:48 18° E 19:56:52 10° NE
Landsat 7 3.8 19:52:36 10° SSE 19:57:21 88° WSW 20:02:10 10° NNW
Cosmos 1812 4.3 19:56:30 16° ESE 19:57:56 20° E 20:00:46 10° NE
Cosmos 1844 3.7 19:52:15 10° SSW 19:57:59 81° ESE 20:03:41 10° NNE
Cosmos 968 Rocket 3.9 19:53:32 10° SSW 19:58:46 68° WNW 20:04:00 10° NNE
BREEZE-M DEB (TANK) 4.3 19:55:11 10° W 19:59:25 55° SSW 20:06:54 13° ESE
Cosmos 1470 Rocket 4.4 19:55:51 10° N 20:00:00 36° ENE 20:02:47 18° SE
ATLAS 5 CENTAUR R/B 2.3 19:54:58 10° NW 20:00:30 89° ENE 20:05:41 17° SE
NOSS 3-3 (A) 4.3 19:57:36 10° S 20:02:50 38° ESE 20:08:43 10° NE
NOSS 3-3 (C) 4.3 19:57:43 10° S 20:02:57 38° ESE 20:08:49 10° NE
Cosmos 1328 Rocket 4.1 19:59:49 15° SSE 20:03:09 41° E 20:07:20 10° NNE
ATLAS 2AS CENTAUR R/B 4.2 19:58:30 10° NW 20:05:17 33° NNE 20:11:37 10° E
BREEZE M DEB (TANK) 4.4 20:01:16 10° WSW 20:05:30 89° N 20:21:06 10° E
Cosmos 1486 Rocket 4.3 20:00:58 10° SSW 20:06:17 73° WNW 20:11:39 10° NNE
IGS 5A 4.0 20:04:31 10° S 20:08:35 58° W 20:12:42 10° NNW
Meteor 1-26 Rocket 4.2 20:03:16 10° S 20:08:55 65° E 20:14:24 10° NNE
CARTOSAT-1 3.8 20:07:01 19° SE 20:09:53 53° ENE 20:14:06 10° N
Cosmos 1833 Rocket 3.3 20:04:37 10° NNW 20:10:03 44° NE 20:14:00 18° ESE
Cosmos 2315 Rocket 4.1 20:05:17 10° S 20:11:34 66° E 20:17:54 10° NNE
Meteor 1-14 Rocket 4.5 20:06:10 10° N 20:12:03 61° ENE 20:16:14 19° SSE
CRYOSAT 2 4.3 20:07:54 14° SSE 20:12:07 76° E 20:17:01 10° N
S3M 4.3 20:06:01 10° SSW 20:12:23 72° W 20:18:44 10° N
BREEZE-M R/B 1.7 20:11:18 10° WSW 20:13:46 56° SSE 20:15:12 21° E
Cosmos 1933 Rocket 4.5 20:10:36 10° N 20:14:33 33° ENE 20:16:40 21° ESE
Cosmos 1666 3.9 20:12:45 10° NNE 20:15:57 26° ENE 20:17:21 21° ESE
Cosmos 1666 Rocket 3.6 20:12:06 10° NNW 20:16:31 80° W 20:19:58 16° S
USA 215 4.3 20:11:57 10° ENE 20:18:02 43° N 20:24:09 10° WNW
Cosmos 1933 4.0 20:18:46 10° SSW 20:22:45 56° WNW 20:26:44 10° N
USA 245 2.2 20:23:41 39° SSW 20:24:18 63° WSW 20:26:33 10° NNW
USA 305 3.6 20:20:56 10° WNW 20:25:07 50° NNE 20:28:38 14° E
Iridium 4 Rocket 4.3 20:22:03 21° SE 20:25:25 42° E 20:30:56 10° NNE
Cosmos 1242 Rocket 3.2 20:24:47 10° SSW 20:28:19 54° WNW 20:31:50 10° N
BREEZE M DEB (TANK) 1.6 20:28:53 10° WNW 20:33:20 88° N 20:34:07 39° E
Cosmos 773 Rocket 4.0 20:28:27 10° NNW 20:33:48 88° WSW 20:37:01 25° SSE
Resurs 01 Rocket 3.3 20:30:26 10° SSW 20:34:21 30° W 20:38:17 10° NNW
Spot 2 Rocket 3.6 20:34:12 20° S 20:37:43 74° WSW 20:42:47 10° NNW
SJ 16-02 2.3 20:38:19 27° ESE 20:39:04 29° E 20:42:53 10° NE
COSMOS 2406 3.3 20:34:51 10° NNW 20:40:32 71° ENE 20:43:43 27° SE
Cosmos 2228 Rocket 4.2 20:40:06 24° ESE 20:41:01 26° E 20:44:45 10° NNE
Cosmos 2082 Rocket 2.9 20:37:55 10° NNW 20:43:17 42° NE 20:46:29 22° ESE
USA 306 3.4 20:40:05 10° WNW 20:44:18 58° NNE 20:47:01 21° E
Meteor 2-6 Rocket 4.2 20:41:14 24° SSE 20:44:21 57° E 20:49:45 10° NNE
Cosmos 1500 3.2 20:41:46 10° NNW 20:45:32 72° W 20:47:10 31° S
CZ-4C R/B 3.0 20:38:46 10° NW 20:45:55 87° NE 20:51:18 24° SE
Cosmos 1782 3.4 20:43:16 12° SSW 20:46:50 55° WNW 20:50:46 10° N
ERS-1 Rocket 3.0 20:50:52 27° S 20:53:39 79° WSW 20:58:42 10° NNW
deb Kosmos-1763 4.1 20:51:04 10° NNW 20:54:35 59° ENE 20:55:19 46° ESE
SPOT 5 3.0 20:52:52 27° S 20:55:38 79° WSW 21:00:55 10° NNW
H-2A R/B 3.6 20:52:29 10° NNE 20:56:37 54° E 20:57:49 40° SSE
Meteor 1-11 Rocket 4.0 20:54:01 10° N 20:59:56 59° ENE 21:02:44 31° SE
Cosmos 1271 Rocket 3.0 21:00:22 43° SE 21:01:06 50° E 21:04:59 10° NNE
Cosmos 1151 Rocket 4.2 20:58:14 10° SW 21:02:21 41° WNW 21:06:31 10° N
Cosmos 1777 Rocket 3.9 20:58:39 17° SSW 21:02:39 85° ESE 21:07:52 10° NNE
Terra 1.8 21:02:22 35° SSE 21:04:26 88° WSW 21:09:14 10° NNW
CREW DRAGON DEMO-1 DEB 2.9 21:02:12 10° WNW 21:04:38 60° NNW 21:04:38 60° NNW
Cosmos 2278 Rocket 2.1 21:05:44 23° S 21:09:14 68° ESE 21:14:53 10° NNE
USA 307 3.0 21:05:23 10° WNW 21:09:40 71° NNE 21:11:25 34° E
Cosmos 1340 Rocket 3.9 21:09:43 10° N 21:13:23 31° ENE 21:14:05 29° E
Cosmos 923 Rocket 4.4 21:08:20 10° NNW 21:13:30 53° ENE 21:15:32 33° ESE
Cosmos 1515 Rocket 4.0 21:17:35 25° SSW 21:20:00 58° WNW 21:24:22 10° N
Cosmos 1544 3.8 21:17:27 10° N 21:20:51 37° ENE 21:20:56 37° E
X-37B 3.0 21:19:16 10° WSW 21:20:09 15° WSW 21:20:09 15° WSW
Cosmos 2084 3.5 21:18:07 10° SW 21:22:16 75° NW 21:26:33 10° NE
Cosmos 1869 Rocket 3.5 21:18:39 10° N 21:22:59 70° ENE 21:23:54 52° SE
ARIANE 5 R/B 4.2 21:20:40 17° SW 21:22:59 27° W 21:26:42 10° NW
USA 308 2.9 21:18:52 10° WNW 21:23:10 81° NNE 21:24:23 46° ESE
Cosmos 1536 2.9 21:19:12 10° N 21:23:14 60° ENE 21:23:48 53° ESE
Meteor 1-10 Rocket 4.2 21:22:59 30° SSW 21:25:54 86° W 21:31:36 10° N
Cosmos 2154 Rocket 4.0 21:23:55 10° N 21:30:18 86° E 21:33:03 37° S
Cosmos 1943 Rocket 3.6 21:30:26 21° E 21:30:26 21° E 21:34:20 10° NE
Cosmos 1812 4.1 21:31:31 21° SW 21:33:27 35° WNW 21:37:03 10° N
Cosmos 2184 Rocket 4.3 21:32:07 10° NNW 21:38:14 60° W 21:41:19 30° SSW
ALOS 2 4.0 21:38:41 25° E 21:39:41 27° ENE 21:43:25 10° N
Cosmos 44 4.2 21:34:37 10° NNW 21:39:55 47° NE 21:42:24 28° E
Cosmos 990 Rocket 4.3 21:40:01 44° SE 21:40:43 47° ESE 21:45:44 10° NNE
Cosmos 1707 Rocket 3.9 21:42:54 47° ESE 21:43:06 47° E 21:47:20 10° NNE
NOSS 3-4 (A) 3.8 21:36:40 10° NW 21:43:37 80° SW 21:47:03 36° SSE
NOSS 3-4 (C) 3.8 21:36:46 10° NW 21:43:44 81° SW 21:47:09 36° SSE
ATLAS 5 CENTAUR R/B 4.1 21:40:28 10° WNW 21:44:47 21° WSW 21:47:13 17° SW
Cosmos 962 Rocket 4.4 21:43:35 10° N 21:49:44 73° E 21:51:48 43° SSE
Cosmos 1666 4.3 21:48:20 10° NW 21:51:26 25° W 21:52:11 23° WSW
Cosmos 2112 Rocket 4.1 21:47:00 10° NNW 21:52:22 72° ENE 21:53:50 48° SE
Cosmos 1833 Rocket 3.7 21:48:47 10° NW 21:53:53 35° WSW 21:55:42 28° SW
SL-24 R/B - RUBIN 2 4.3 21:49:18 10° NW 21:54:53 60° NE 21:56:38 39° ESE
Nadezhda 1 Rocket 4.1 21:51:52 32° SSW 21:54:57 75° W 22:01:14 10° N
Cosmos 1238 Rocket 4.1 21:49:43 10° N 21:56:05 60° ENE 21:57:51 42° SE
Cosmos 1743 2.6 21:53:04 10° N 21:56:52 76° ENE 21:56:52 76° ENE
ATLAS 2AS CENTAUR R/B 2.8 21:49:51 10° NW 21:57:20 81° NE 22:00:31 36° SE
SeaSat 1 4.4 21:56:28 10° ENE 21:58:33 15° E 21:58:33 15° E
USA 215 3.5 21:55:02 15° ESE 22:00:31 66° NNE 22:07:00 10° NW
BREEZE-M DEB (TANK) 3.7 21:57:21 10° W 22:03:24 46° N 22:04:40 26° NE
Cosmos 2297 3.9 22:03:58 46° SE 22:04:41 49° ESE 22:10:10 10° NE
USA 305 3.2 22:00:58 10° WNW 22:04:41 52° WSW 22:04:41 52° WSW
Cosmos 2181 Rocket 4.2 22:07:22 44° SE 22:08:59 57° E 22:14:59 10° NNE
Cosmos 1733 Rocket 2.8 22:11:30 10° N 22:15:51 83° E 22:16:02 80° SE
SJ 16-02 2.8 22:15:14 21° WSW 22:17:33 34° WNW 22:21:38 10° N
Cosmos 2228 Rocket 4.4 22:17:34 27° WSW 22:19:06 34° WNW 22:23:11 10° N
Cosmos 1680 Rocket 3.7 22:15:15 10° NNW 22:20:31 61° WSW 22:21:27 52° SSW
Cosmos 2341 Rocket 4.0 22:14:40 10° NNW 22:21:05 78° W 22:23:08 46° S
Meteor 1-27 Rocket 4.4 22:18:37 29° SW 22:21:21 52° WNW 22:27:08 10° N
Cosmos 2366 rocket 4.0 22:16:08 10° N 22:22:19 73° E 22:24:07 48° SSE
USA 306 3.9 22:20:09 10° WNW 22:23:05 34° WSW 22:23:05 34° WSW
Cosmos 1937 Rocket 3.4 22:24:06 61° SE 22:24:35 65° ESE 22:29:43 10° NNE
Cosmos 1818 3.7 22:20:31 10° NW 22:26:01 69° NE 22:27:40 45° ESE
Cosmos 2082 Rocket 3.0 22:22:11 10° NW 22:27:18 37° WSW 22:28:19 34° SW
Thor Agena Rocket 4.4 22:22:39 10° NNE 22:27:24 34° E 22:27:48 34° ESE
Cosmos 1908 Rocket 4.2 22:23:16 10° N 22:27:34 43° ENE 22:27:56 42° E
Cosmos 967 Rocket 4.5 22:27:43 51° SSE 22:29:01 62° ESE 22:35:13 10° NE
Cosmos 1900 4.3 22:33:48 63° SE 22:33:57 63° ESE 22:38:58 10° NE
CZ-4C R/B 4.1 22:27:58 10° WNW 22:34:08 28° WSW 22:36:28 25° SW
Gbstr 26 Del rocket 4.0 22:28:32 10° WNW 22:35:50 82° NNE 22:40:00 22° ESE
ERBS 3.7 22:34:03 10° NW 22:37:04 37° NNE 22:37:04 37° NNE
Cosmos 858 Rocket 4.3 22:37:14 66° S 22:37:57 79° ESE 22:43:11 10° NNE
Cosmos 2218 Rocket 3.9 22:34:03 10° N 22:40:20 83° W 22:42:05 51° S
Meteor 1-19 Rocket 4.0 22:40:49 61° S 22:41:48 87° E 22:47:14 10° NNE
Terra 4.2 22:41:15 10° WSW 22:42:54 12° W 22:44:38 10° WNW
Okean 1 3.6 22:46:34 59° WNW 22:46:34 59° WNW 22:50:26 10° N
Cosmos 489 Rocket 4.4 22:41:28 10° NNW 22:47:43 85° WSW 22:49:22 52° SSE
Cosmos 1340 Rocket 4.4 22:46:20 10° NW 22:49:40 25° W 22:49:40 25° W
Cosmos 1461 3.9 22:53:28 40° E 22:53:28 40° E 22:57:07 10° NE
Cosmos 2278 Rocket 4.1 22:49:05 10° WSW 22:53:50 27° NW 22:58:35 10° NNE
Cosmos 1703 Rocket 3.9 22:57:18 53° E 22:57:18 53° E 23:01:27 10° NNE
Cosmos 1862 Rocket 3.8 22:57:00 55° W 22:57:12 55° WNW 23:01:29 10° N
Cosmos 1782 Rocket 4.0 22:54:37 10° N 22:59:00 50° ENE 22:59:17 49° E
Cosmos 1898 Rocket 4.1 22:57:39 36° WSW 22:59:26 52° WNW 23:04:40 10° NNE
Nadezhda 3 Rocket 4.3 23:02:11 44° SE 23:03:46 55° E 23:09:50 10° NNE
Cosmos 2369 Rocket 2.3 23:03:27 54° SE 23:04:04 57° ESE 23:09:37 10° NE
COBE Rocket 4.0 23:07:04 60° SW 23:07:35 64° W 23:12:41 10° NNW
RESURS DK-1 3.2 23:05:16 10° NNW 23:09:17 44° NE 23:09:53 41° E
Gblst 52 Del rocket 4.3 23:03:36 10° WNW 23:10:25 90° SSW 23:14:42 20° ESE
Cosmos 1975 3.6 23:08:52 10° NNW 23:12:12 42° WNW 23:12:12 42° WNW
Cosmos 1943 Rocket 2.3 23:11:55 48° SW 23:13:28 72° WNW 23:19:06 10° NNE
SL-27 R/B 3.9 23:10:40 10° N 23:13:17 31° NE 23:13:17 31° NE
Cosmos 2084 Rocket 4.0 23:09:58 10° NW 23:13:20 48° W 23:13:20 48° W
SAR-Lupe-2 4.5 23:11:28 10° N 23:14:31 44° NW 23:14:31 44° NW
ALOS 2 3.5 23:16:04 36° W 23:16:04 36° W 23:19:59 10° NNW
SL-08 R/B 4.4 23:11:51 10° NNW 23:18:02 76° W 23:19:37 52° SSW
PSLV R/B 4.0 23:14:09 10° NNE 23:18:26 52° E 23:18:26 52° E
Cosmos 1867 4.1 23:18:57 41° ESE 23:19:02 41° ESE 23:24:09 10° NE
Cosmos 1607 4.3 23:19:25 44° SE 23:20:26 48° ESE 23:26:37 10° NE
Cosmos 44 4.3 23:16:09 10° NW 23:20:48 37° WSW 23:20:48 37° WSW
DNEPR-1 R/B 4.1 23:19:56 47° WSW 23:21:33 75° NW 23:26:28 10° NE
Meteor 2-4 Rocket 3.7 23:20:31 55° SSW 23:21:50 77° WNW 23:27:31 10° N
Cosmos 468 4.5 23:17:30 10° NNW 23:22:50 80° ENE 23:23:50 59° SE
Cosmos 2263 4.3 23:22:38 53° SSE 23:23:31 60° ESE 23:29:13 10° NE
Okean 3 3.7 23:28:08 57° E 23:28:08 57° E 23:32:14 10° NNE
EO 1 Del DPAF 3.8 23:24:33 10° NNE 23:27:38 49° ENE 23:27:38 49° ENE
Okean 1-7 3.0 23:30:15 73° WNW 23:30:15 73° WNW 23:34:29 10° N
ATLAS CENTAUR R/B 3.1 23:32:11 19° E 23:32:11 19° E 23:33:52 10° ENE
Cosmos 372 Rocket 4.1 23:30:36 52° WSW 23:31:36 64° WNW 23:36:41 10° NNE
Helios 1A 3.9 23:31:38 36° E 23:32:22 39° ENE 23:36:15 10° N
Sich 1 Rocket 3.9 23:30:29 10° N 23:35:02 59° ENE 23:35:34 55° ESE
Cosmos 1125 Rocket 3.7 23:35:51 50° SE 23:36:27 53° ESE 23:41:32 10° NNE
SeaSat 1 2.4 23:32:33 10° NNE 23:37:32 86° WNW 23:38:19 64° SW
Cosmos 494 Rocket 3.9 23:33:57 10° NNW 23:39:12 83° ENE 23:40:14 58° SE
Cosmos 1656 Rocket 3.6 23:39:04 59° SSE 23:39:54 69° ESE 23:45:25 10° NNE
Cosmos 2242 Rocket 3.9 23:40:22 52° W 23:40:35 53° WNW 23:44:58 10° N
Cosmos 2239 Rocket 4.5 23:36:47 10° NNW 23:43:05 78° W 23:44:52 50° S
USA 215 3.3 23:42:20 46° S 23:43:40 53° SW 23:50:03 10° WNW
Cosmos 1833 4.1 23:40:20 10° NNW 23:46:06 82° WSW 23:47:33 53° SSE
ATLAS 2AS CENTAUR R/B 3.8 23:41:45 10° WNW 23:47:29 26° WSW 23:47:56 26° WSW
CZ-2D R/B 3.8 23:47:37 10° NE 23:51:57 24° E 23:53:56 19° ESE
